EW5962 Weather Reports


Display with metric or nautical units.
time (UTC)temp
F
wind
direction
speed
MPH
gust
MPH
rain 1hr
in
rain 24hr
in
rain mn
in
humidity
%
barometer
mb
20260901141103 80 349 0.0 1.0 0.00 0.00 0.00 82 1018.0
20260901140503 80 330 0.0 0.0 0.00 0.00 0.00 83 1017.9
20260901140010 79 348 0.0 0.0 0.00 0.00 0.00 85 1017.9
20260901135604 78 301 0.0 0.0 0.00 0.00 0.00 86 1017.9
20260901135002 78 323 0.0 0.0 0.00 0.00 0.00 87 1017.8
20260901134509 77 341 0.0 0.0 0.00 0.00 0.00 89 1017.9
20260901134102 77 212 0.0 0.0 0.00 0.00 0.00 88 1017.8
20260901133503 76 338 0.0 0.0 0.00 0.00 0.00 90 1017.9
20260901133009 76 338 0.0 0.0 0.00 0.00 0.00 90 1017.9
20260901132602 76 356 0.0 1.0 0.00 0.00 0.00 92 1017.9
20260901132001 75 15 0.0 1.0 0.00 0.00 0.00 91 1017.9
20260901131514 75 339 0.0 2.0 0.00 0.00 0.00 93 1017.9
20260901131104 75 1 0.0 2.0 0.00 0.00 0.00 94 1017.9
20260901130503 74 339 0.0 0.0 0.00 0.00 0.00 95 1017.9
20260901130009 74 356 0.0 0.0 0.00 0.00 0.00 96 1017.8
20260901125602 74 259 0.0 0.0 0.00 0.00 0.00 96 1017.9
20260901125002 73 259 0.0 0.0 0.00 0.00 0.00 97 1017.9
20260901124509 73 259 0.0 0.0 0.00 0.00 0.00 97 1017.9
20260901124105 73 259 0.0 0.0 0.00 0.00 0.00 97 1017.9
20260901123502 72 259 0.0 0.0 0.00 0.00 0.00 97 1017.9
20260901123010 72 259 0.0 1.0 0.00 0.00 0.00 98 1017.9
20260901122603 71 259 0.0 1.0 0.00 0.00 0.00 98 1017.9
20260901122002 71 231 0.0 0.0 0.00 0.00 0.00 98 1017.9
20260901121509 70 231 0.0 0.0 0.00 0.00 0.00 97 1017.8
20260901121102 70 231 0.0 0.0 0.00 0.00 0.00 97 1017.8
20260901120502 70 231 0.0 0.0 0.00 0.00 0.00 97 1017.8
20260901120010 70 231 0.0 0.0 0.00 0.00 0.00 97 1017.8
20260901115602 69 231 0.0 0.0 0.00 0.00 0.00 97 1017.8
20260901115003 69 231 0.0 0.0 0.00 0.00 0.00 97 1017.6
20260901114510 69 231 0.0 0.0 0.00 0.00 0.00 97 1017.7
20260901114102 69 231 0.0 0.0 0.00 0.00 0.00 97 1017.6
20260901113502 69 231 0.0 0.0 0.00 0.00 0.00 97 1017.5
20260901113009 69 231 0.0 0.0 0.00 0.00 0.00 97 1017.4
20260901112601 68 231 0.0 0.0 0.00 0.00 0.00 97 1017.4
20260901112002 68 231 0.0 0.0 0.00 0.00 0.00 97 1017.3
20260901111508 68 231 0.0 0.0 0.00 0.00 0.00 97 1017.3
20260901111102 68 231 0.0 0.0 0.00 0.00 0.00 96 1017.3
20260901110502 68 231 0.0 0.0 0.00 0.00 0.00 96 1017.2
20260901110008 68 231 0.0 0.0 0.00 0.00 0.00 96 1017.1
20260901105602 68 231 0.0 0.0 0.00 0.00 0.00 96 1017.1
20260901105003 68 231 0.0 0.0 0.00 0.00 0.00 96 1017.0
20260901104517 68 231 0.0 0.0 0.00 0.00 0.00 96 1016.9
20260901104103 68 231 0.0 0.0 0.00 0.00 0.00 96 1016.9
20260901103503 68 231 0.0 0.0 0.00 0.00 0.00 96 1016.9
20260901103008 68 231 0.0 0.0 0.00 0.00 0.00 96 1016.9
20260901102603 68 231 0.0 0.0 0.00 0.00 0.00 96 1016.9
20260901102003 68 231 0.0 0.0 0.00 0.00 0.00 96 1016.8
20260901101509 68 231 0.0 0.0 0.00 0.00 0.00 96 1016.7
20260901101105 68 231 0.0 0.0 0.00 0.00 0.00 96 1016.8
20260901100504 68 231 0.0 0.0 0.00 0.00 0.00 96 1016.9
20260901100010 68 231 0.0 0.0 0.00 0.00 0.00 96 1016.9
20260901095603 68 231 0.0 0.0 0.00 0.00 0.00 96 1016.8
20260901095004 69 231 0.0 0.0 0.00 0.00 0.00 96 1016.7
20260901094509 69 231 0.0 0.0 0.00 0.00 0.00 96 1016.7
20260901094105 69 231 0.0 0.0 0.00 0.00 0.00 96 1016.8
20260901093504 69 231 0.0 0.0 0.00 0.00 0.00 96 1016.8
20260901093009 69 231 0.0 0.0 0.00 0.00 0.00 96 1016.8
20260901092603 69 231 0.0 0.0 0.00 0.00 0.00 96 1016.8
20260901092003 69 231 0.0 0.0 0.00 0.00 0.00 96 1016.7
20260901091509 69 231 0.0 0.0 0.00 0.00 0.00 96 1016.8
20260901091102 69 231 0.0 0.0 0.00 0.00 0.00 96 1016.8
20260901090503 69 231 0.0 0.0 0.00 0.00 0.00 96 1016.8
20260901090010 69 231 0.0 0.0 0.00 0.00 0.00 96 1016.8
20260901085603 69 231 0.0 0.0 0.00 0.00 0.00 96 1016.7
20260901085004 69 231 0.0 0.0 0.00 0.00 0.00 96 1016.8
20260901084509 69 231 0.0 0.0 0.00 0.00 0.00 96 1017.0
20260901084104 69 231 0.0 0.0 0.00 0.00 0.00 96 1017.0
20260901083504 69 231 0.0 0.0 0.00 0.00 0.00 96 1016.9
20260901083026 69 231 0.0 0.0 0.00 0.00 0.00 96 1016.8
20260901082604 69 231 0.0 0.0 0.00 0.00 0.00 96 1016.9
20260901082003 69 231 0.0 0.0 0.00 0.00 0.00 96 1016.8
20260901081512 69 231 0.0 0.0 0.00 0.00 0.00 96 1016.9
20260901081105 70 231 0.0 0.0 0.00 0.00 0.00 95 1017.0
20260901080503 70 231 0.0 0.0 0.00 0.00 0.00 95 1016.9
20260901080010 70 231 0.0 0.0 0.00 0.00 0.00 96 1016.9
20260901075604 70 231 0.0 0.0 0.00 0.00 0.00 96 1016.9
20260901075004 70 231 0.0 0.0 0.00 0.00 0.00 96 1016.9
20260901074517 70 231 0.0 0.0 0.00 0.00 0.00 96 1017.0
20260901074103 70 231 0.0 0.0 0.00 0.00 0.00 96 1017.0
20260901073503 70 231 0.0 0.0 0.00 0.00 0.00 95 1017.1
20260901073025 70 231 0.0 0.0 0.00 0.00 0.00 95 1017.1
20260901072606 70 231 0.0 0.0 0.00 0.00 0.00 95 1017.1
20260901072003 70 231 0.0 0.0 0.00 0.00 0.00 95 1017.1
20260901071510 70 231 0.0 0.0 0.00 0.00 0.00 96 1017.2
20260901071103 70 231 0.0 0.0 0.00 0.00 0.00 96 1017.2
20260901070503 70 231 0.0 0.0 0.00 0.00 0.00 96 1017.2
20260901070019 70 231 0.0 0.0 0.00 0.00 0.00 96 1017.2
20260901065604 70 231 0.0 0.0 0.00 0.00 0.00 96 1017.2
20260901065003 70 231 0.0 0.0 0.00 0.00 0.00 95 1017.2
20260901064513 70 231 0.0 0.0 0.00 0.00 0.00 95 1017.2
20260901064104 71 231 0.0 0.0 0.00 0.00 0.00 95 1017.3
20260901063503 71 231 0.0 0.0 0.00 0.00 0.00 95 1017.4
20260901063009 71 231 0.0 0.0 0.00 0.00 0.00 95 1017.3
20260901062605 71 231 0.0 0.0 0.00 0.00 0.00 95 1017.4
20260901062004 71 231 0.0 0.0 0.00 0.00 0.00 95 1017.4
20260901061509 71 231 0.0 0.0 0.00 0.00 0.00 95 1017.4
20260901061105 71 231 0.0 0.0 0.00 0.00 0.00 95 1017.4
20260901060503 71 231 0.0 0.0 0.00 0.00 0.00 95 1017.5
20260901060011 71 231 0.0 0.0 0.00 0.00 0.00 95 1017.4
20260901055605 71 231 0.0 0.0 0.00 0.00 0.00 95 1017.4
20260901055003 71 231 0.0 0.0 0.00 0.00 0.00 95 1017.5
20260901054510 71 231 0.0 0.0 0.00 0.00 0.00 95 1017.4
20260901054107 71 231 0.0 0.0 0.00 0.00 0.00 95 1017.5
20260901053503 71 231 0.0 0.0 0.00 0.00 0.00 95 1017.5
20260901053010 71 231 0.0 0.0 0.00 0.00 0.00 95 1017.5
20260901052606 71 231 0.0 0.0 0.00 0.00 0.00 95 1017.5
20260901052002 71 231 0.0 0.0 0.00 0.00 0.00 95 1017.6
20260901051511 71 231 0.0 0.0 0.00 0.00 0.00 95 1017.6
20260901051009 71 231 0.0 0.0 0.00 0.00 0.00 95 1017.6
20260901050605 71 231 0.0 0.0 0.00 0.00 0.00 95 1017.6
20260901050004 71 231 0.0 0.0 0.00 0.00 0.00 95 1017.5
20260901045509 71 231 0.0 0.0 0.00 0.00 0.00 95 1017.7
20260901045104 71 231 0.0 0.0 0.00 0.00 0.00 94 1017.7
20260901044505 72 231 0.0 0.0 0.00 0.00 0.00 94 1017.7
20260901044010 72 231 0.0 0.0 0.00 0.00 0.00 94 1017.7
20260901043604 72 231 0.0 0.0 0.00 0.00 0.00 94 1017.7
20260901043004 72 231 0.0 0.0 0.00 0.00 0.00 95 1017.6
20260901042509 72 231 0.0 0.0 0.00 0.00 0.00 94 1017.6
20260901042103 72 231 0.0 0.0 0.00 0.00 0.00 94 1017.6
20260901041503 72 231 0.0 0.0 0.00 0.00 0.00 94 1017.6
20260901041003 72 231 0.0 0.0 0.00 0.00 0.00 94 1017.5
20260901040503 72 231 0.0 0.0 0.00 0.00 0.00 94 1017.4
20260901040009 72 231 0.0 0.0 0.00 0.00 0.00 94 1017.5
20260901035604 72 231 0.0 0.0 0.00 0.00 0.00 94 1017.5
20260901035002 72 231 0.0 0.0 0.00 0.00 0.00 94 1017.4
20260901034516 72 231 0.0 0.0 0.00 0.00 0.00 94 1017.4
20260901034103 72 231 0.0 0.0 0.00 0.00 0.00 94 1017.4
20260901033503 72 231 0.0 0.0 0.00 0.00 0.00 94 1017.4
20260901033010 72 231 0.0 0.0 0.00 0.00 0.00 94 1017.4
20260901032603 72 231 0.0 0.0 0.00 0.00 0.00 94 1017.5
20260901032003 72 231 0.0 0.0 0.00 0.00 0.00 94 1017.5
20260901031515 73 231 0.0 0.0 0.00 0.00 0.00 94 1017.4
20260901031105 73 231 0.0 0.0 0.00 0.00 0.00 94 1017.4
20260901030503 73 231 0.0 0.0 0.00 0.00 0.00 94 1017.3
20260901030017 73 231 0.0 0.0 0.00 0.00 0.00 94 1017.5
20260901025603 73 231 0.0 0.0 0.00 0.00 0.00 94 1017.5
20260901025004 73 231 0.0 0.0 0.00 0.00 0.00 93 1017.5
20260901024521 73 231 0.0 0.0 0.00 0.00 0.00 93 1017.4
20260901024106 73 231 0.0 0.0 0.00 0.00 0.00 93 1017.4
20260901023503 73 231 0.0 0.0 0.00 0.00 0.00 93 1017.5
20260901023010 73 231 0.0 0.0 0.00 0.00 0.00 93 1017.4
20260901022603 73 231 0.0 0.0 0.00 0.00 0.00 93 1017.4
20260901022003 73 231 0.0 0.0 0.00 0.00 0.00 93 1017.4
20260901021509 74 231 0.0 0.0 0.00 0.00 0.00 93 1017.3
20260901021104 74 231 0.0 0.0 0.00 0.00 0.00 93 1017.4
20260901020502 74 231 0.0 0.0 0.00 0.00 0.00 93 1017.4
20260901020010 74 231 0.0 0.0 0.00 0.00 0.00 93 1017.4
20260901015605 74 231 0.0 0.0 0.00 0.00 0.00 92 1017.4
20260901015006 74 231 0.0 0.0 0.00 0.00 0.00 92 1017.4
20260901014509 74 231 0.0 0.0 0.00 0.00 0.00 92 1017.3
20260901014104 74 231 0.0 0.0 0.00 0.00 0.00 92 1017.2
20260901013503 74 231 0.0 0.0 0.00 0.00 0.00 91 1017.1
20260901013009 75 231 0.0 0.0 0.00 0.00 0.00 91 1017.1
20260901012604 75 231 0.0 0.0 0.00 0.00 0.00 91 1017.1
20260901012004 75 231 0.0 0.0 0.00 0.00 0.00 91 1016.9
20260901011510 75 231 0.0 0.0 0.00 0.00 0.00 91 1016.8
20260901011104 75 231 0.0 0.0 0.00 0.00 0.00 90 1016.8
20260901010503 75 231 0.0 0.0 0.00 0.00 0.00 90 1016.7
20260901010018 75 231 0.0 0.0 0.00 0.00 0.00 90 1016.6
20260901005603 76 231 0.0 0.0 0.00 0.00 0.00 90 1016.6
20260901005004 76 231 0.0 0.0 0.00 0.00 0.00 89 1016.5
20260901004509 76 231 0.0 0.0 0.00 0.00 0.00 89 1016.6
20260901004103 76 231 0.0 0.0 0.00 0.00 0.00 88 1016.6
20260901003503 77 231 0.0 0.0 0.00 0.00 0.00 88 1016.5
20260901003011 77 231 0.0 0.0 0.00 0.00 0.00 88 1016.4
20260901002606 77 231 0.0 0.0 0.00 0.00 0.00 87 1016.4
20260901002010 77 231 0.0 0.0 0.00 0.00 0.00 87 1016.4
20260901001608 77 231 0.0 0.0 0.00 0.00 0.00 86 1016.3
20260901001002 78 231 0.0 0.0 0.00 0.00 0.00 86 1016.2
20260901000513 78 231 0.0 0.0 0.00 0.00 0.00 85 1016.3
20260901000105 78 231 0.0 0.0 0.00 0.00 0.00 85 1016.3
20260831235504 78 231 0.0 0.0 0.00 0.00 0.00 84 1016.2
20260831235009 79 231 0.0 0.0 0.00 0.00 0.00 84 1016.2
20260831234608 79 231 0.0 0.0 0.00 0.00 0.00 83 1016.2
20260831234002 79 231 0.0 0.0 0.00 0.00 0.00 82 1016.1
20260831233509 80 231 0.0 0.0 0.00 0.00 0.00 82 1016.1
20260831233103 80 231 0.0 0.0 0.00 0.00 0.00 81 1016.1
20260831232505 80 231 0.0 0.0 0.00 0.00 0.00 80 1016.1
20260831232010 81 231 0.0 0.0 0.00 0.00 0.00 79 1016.1
20260831231605 81 231 0.0 0.0 0.00 0.00 0.00 79 1016.1
20260831231003 81 231 0.0 0.0 0.00 0.00 0.00 78 1016.2
20260831230509 81 231 0.0 0.0 0.00 0.00 0.00 78 1016.2
20260831230140 82 231 0.0 0.0 0.00 0.00 0.00 77 1016.3
20260831225502 82 231 0.0 0.0 0.00 0.00 0.00 77 1016.2
20260831225009 82 231 0.0 0.0 0.00 0.00 0.00 76 1016.2
20260831224616 82 231 0.0 0.0 0.00 0.00 0.00 76 1016.3
20260831224003 82 231 0.0 0.0 0.00 0.00 0.00 76 1016.4
20260831223509 83 231 0.0 0.0 0.00 0.00 0.00 75 1016.4
20260831223103 83 231 0.0 0.0 0.00 0.00 0.00 73 1016.4
20260831222507 83 231 0.0 0.0 0.00 0.00 0.00 74 1016.5
20260831222010 83 231 0.0 0.0 0.00 0.00 0.00 73 1016.5
20260831221629 83 231 0.0 0.0 0.00 0.00 0.00 73 1016.5
20260831221004 83 231 0.0 1.0 0.00 0.00 0.00 72 1016.5
20260831220509 83 231 0.0 2.0 0.00 0.00 0.00 71 1016.7
20260831215503 83 200 0.0 0.0 0.00 0.00 0.00 74 1016.6
20260831215010 83 200 0.0 1.0 0.00 0.00 0.00 75 1016.7
20260831214608 83 200 0.0 1.0 0.00 0.00 0.00 75 1016.7
20260831214002 83 200 0.0 1.0 0.00 0.00 0.00 73 1016.7
20260831213509 83 200 0.0 1.0 0.00 0.00 0.00 74 1016.8
20260831213103 83 200 0.0 0.0 0.00 0.00 0.00 74 1016.8
20260831212504 83 232 0.0 1.0 0.00 0.00 0.00 72 1016.7
20260831212009 83 234 0.0 1.0 0.00 0.00 0.00 72 1016.8
20260831211615 83 278 0.0 1.0 0.00 0.00 0.00 72 1016.9
20260831211004 84 123 0.0 0.0 0.00 0.00 0.00 71 1017.1
20260831210508 84 104 0.0 1.0 0.00 0.00 0.00 69 1017.0
20260831210103 85 65 0.0 1.0 0.00 0.00 0.00 69 1016.9
20260831205503 85 32 0.0 1.0 0.00 0.00 0.00 67 1016.9
20260831205009 86 161 0.0 1.0 0.00 0.00 0.00 67 1016.9
20260831204603 87 11 0.0 1.0 0.00 0.00 0.00 66 1017.1
20260831204005 87 57 0.0 4.0 0.00 0.00 0.00 65 1017.3
20260831203510 88 89 0.0 4.0 0.00 0.00 0.00 64 1017.2
20260831203104 89 39 0.0 4.0 0.00 0.00 0.00 64 1017.2
20260831202503 89 23 0.0 0.0 0.00 0.00 0.00 65 1017.0
20260831202011 89 3 0.0 3.0 0.00 0.00 0.00 64 1017.0
20260831201605 89 58 0.0 3.0 0.00 0.00 0.00 64 1016.9
20260831201002 90 321 0.0 2.0 0.00 0.00 0.00 63 1016.7
20260831200508 90 314 0.0 1.0 0.00 0.00 0.00 61 1016.7
20260831195502 91 148 0.0 5.0 0.00 0.00 0.00 60 1016.8
20260831195009 91 189 0.0 5.0 0.00 0.00 0.00 60 1016.8
20260831194702 92 193 0.0 1.0 0.00 0.00 0.00 59 1016.8
20260831194003 92 175 0.0 1.0 0.00 0.00 0.00 57 1016.8
20260831193509 92 175 0.0 5.0 0.00 0.00 0.00 56 1016.9
20260831193103 93 162 1.0 5.0 0.00 0.00 0.00 51 1016.9
20260831192502 93 167 0.0 1.0 0.00 0.00 0.00 53 1016.8
20260831192008 93 217 0.0 2.0 0.00 0.00 0.00 54 1016.8
20260831191603 93 217 0.0 2.0 0.00 0.00 0.00 53 1017.0
20260831191003 94 212 0.0 1.0 0.00 0.00 0.00 51 1017.0
20260831190510 94 205 0.0 3.0 0.00 0.00 0.00 55 1017.1
20260831190110 94 347 0.0 3.0 0.00 0.00 0.00 52 1017.1
20260831185503 94 252 0.0 2.0 0.00 0.00 0.00 55 1017.2
20260831185013 93 252 0.0 3.0 0.00 0.00 0.00 51 1017.2
20260831184617 93 252 0.0 3.0 0.00 0.00 0.00 49 1017.3
20260831184002 94 203 0.0 1.0 0.00 0.00 0.00 52 1017.4
20260831183510 94 349 0.0 6.0 0.00 0.00 0.00 54 1017.5
20260831183103 94 10 0.0 6.0 0.00 0.00 0.00 55 1017.5
20260831182503 94 2 2.0 5.0 0.00 0.00 0.00 54 1017.7
20260831182009 93 23 0.0 4.0 0.00 0.00 0.00 54 1017.7
20260831181603 94 4 0.0 4.0 0.00 0.00 0.00 55 1017.7
20260831181002 93 59 0.0 5.0 0.00 0.00 0.00 55 1017.7
20260831180510 93 115 0.0 5.0 0.00 0.00 0.00 57 1017.9
20260831175502 93 189 1.0 6.0 0.00 0.00 0.00 56 1018.0
20260831175009 93 217 0.0 6.0 0.00 0.00 0.00 59 1018.1
20260831174609 93 348 2.0 6.0 0.00 0.00 0.00 59 1018.1
20260831174110 92 326 0.0 1.0 0.00 0.00 0.00 59 1018.1
20260831173509 91 278 0.0 1.0 0.00 0.00 0.00 62 1018.1
20260831173103 91 336 0.0 2.0 0.00 0.00 0.00 61 1018.1
20260831172503 91 212 0.0 2.0 0.00 0.00 0.00 62 1018.2
20260831172012 91 359 0.0 1.0 0.00 0.00 0.00 60 1018.3
20260831171603 90 353 0.0 2.0 0.00 0.00 0.00 61 1018.3
20260831171002 90 344 0.0 2.0 0.00 0.00 0.00 63 1018.3
20260831170513 89 59 0.0 5.0 0.00 0.00 0.00 63 1018.3
20260831170132 89 90 0.0 5.0 0.00 0.00 0.00 63 1018.3
20260831165502 89 168 0.0 3.0 0.00 0.00 0.00 65 1018.4
20260831165010 89 36 0.0 3.0 0.00 0.00 0.00 64 1018.4
20260831164603 89 174 0.0 4.0 0.00 0.00 0.00 67 1018.5
20260831164003 89 351 0.0 6.0 0.00 0.00 0.00 64 1018.6
20260831163509 88 270 0.0 0.0 0.00 0.00 0.00 66 1018.7
20260831163103 88 170 0.0 1.0 0.00 0.00 0.00 66 1018.7
20260831162504 88 163 0.0 4.0 0.00 0.00 0.00 67 1018.7
20260831162010 88 188 0.0 4.0 0.00 0.00 0.00 66 1018.8
20260831161509 87 357 0.0 5.0 0.00 0.00 0.00 68 1018.8
20260831161103 87 309 0.0 5.0 0.00 0.00 0.00 70 1018.9
20260831160502 87 93 0.0 1.0 0.00 0.00 0.00 68 1018.9
20260831160023 86 82 0.0 2.0 0.00 0.00 0.00 68 1018.9
20260831155603 86 190 0.0 2.0 0.00 0.00 0.00 72 1018.9
20260831155002 86 174 0.0 3.0 0.00 0.00 0.00 73 1018.9
20260831154509 86 191 0.0 3.0 0.00 0.00 0.00 71 1018.9
20260831154102 85 182 0.0 3.0 0.00 0.00 0.00 71 1018.9
20260831153502 85 178 0.0 1.0 0.00 0.00 0.00 72 1019.0
20260831153010 84 6 0.0 2.0 0.00 0.00 0.00 75 1019.0
20260831152604 84 47 0.0 2.0 0.00 0.00 0.00 75 1019.0
20260831152006 83 147 0.0 1.0 0.00 0.00 0.00 76 1019.0
20260831151511 83 122 0.0 1.0 0.00 0.00 0.00 75 1019.1
20260831151103 83 3 0.0 1.0 0.00 0.00 0.00 78 1019.1
20260831150503 82 146 0.0 4.0 0.00 0.00 0.00 79 1019.2
20260831150010 81 21 0.0 4.0 0.00 0.00 0.00 80 1019.2
20260831145602 81 171 0.0 2.0 0.00 0.00 0.00 80 1019.2
20260831145003 80 159 0.0 1.0 0.00 0.00 0.00 81 1019.2
20260831144522 79 165 0.0 1.0 0.00 0.00 0.00 82 1019.3
20260831144106 79 136 0.0 1.0 0.00 0.00 0.00 83 1019.2
20260831143503 78 149 0.0 0.0 0.00 0.00 0.00 86 1019.3
20260831143009 78 140 0.0 2.0 0.00 0.00 0.00 86 1019.3
20260831142604 77 123 0.0 2.0 0.00 0.00 0.00 87 1019.2
20260831142004 77 8 0.0 4.0 0.00 0.00 0.00 89 1019.1
20260831141513 76 180 0.0 4.0 0.00 0.00 0.00 90 1019.1